Weather History for Ogden Hill AFB, UT

Change the Weather History Date:

Wednesday, February 6, 2013

  Actual Average Record
Temperature  
Mean Temperature 24 °F -  
Max Temperature 30 °F 34 °F 50 °F (2000)
Min Temperature 17 °F 21 °F 6 °F (2002)
Degree Days  
Heating Degree Days 42    
Moisture  
Dew Point 19 °F    
Average Humidity 82    
Maximum Humidity 86    
Minimum Humidity 70    
Precipitation  
Precipitation 0.00 in - - ()
Sea Level Pressure  
Sea Level Pressure 30.04 in    
Wind  
Wind Speed 4 mph (South)    
Max Wind Speed 10 mph    
Max Gust Speed -    
Visibility 1 miles    
Events Fog , Snow    
Averages and records for this station are not official NWS values.
T = Trace of Precipitation, MM = Missing Value Source: NWS Daily Summary

Daily Weather History Graph

Daily Weather History Graph

Search for Another Location

Airport:

Trip Planner

Search our weather history database for the weather conditions in past years. The results will help you decide how hot, cold, wet, or windy it might be!

Date:

Astronomy

Feb. 06, 2013 Rise Set
Actual Time 7:33 AM MST 5:51 PM MST
Civil Twilight 7:04 AM MST 6:20 PM MST
Nautical Twilight 6:31 AM MST 6:52 PM MST
Astronomical Twilight 5:59 AM MST 7:25 PM MST
Moon 4:21 AM MST (2/6) 2:12 PM MST (2/6)
Length of Visible Light 11h 15m
Length of Day
10h 18m
Waning Crescent, 16% of the Moon is Illuminated
Feb 6
Waning Crescent
Feb 10
New
Feb 17
First Quarter
Feb 25
Full
Mar 4
Last Quarter

Hourly Weather History & Observations

Time (MST) Temp. Windchill Dew Point Humidity Pressure Visibility Wind Dir Wind Speed Gust Speed Precip Events Conditions
12:03 AM 24.8 °F - 19.4 °F 80% 29.92 in 0.5 mi NW 2.3 mph - N/A   Haze
12:08 AM 24.8 °F 20.5 °F 19.4 °F 80% 29.92 in 0.5 mi North 3.5 mph - N/A   Haze
12:13 AM 24.8 °F - 19.4 °F 80% 29.93 in 0.2 mi North 2.3 mph - N/A   Haze
12:23 AM 24.8 °F - 19.4 °F 80% 29.93 in 0.2 mi East 2.3 mph - N/A   Haze
12:28 AM 23.0 °F 17.0 °F 19.4 °F 86% 29.92 in 0.5 mi ENE 4.6 mph - N/A   Haze
12:33 AM 24.8 °F 20.5 °F 19.4 °F 80% 29.93 in 0.8 mi ENE 3.5 mph - N/A   Haze
12:38 AM 24.8 °F 20.5 °F 19.4 °F 80% 29.93 in 1.5 mi SE 3.5 mph - N/A   Haze
12:48 AM 23.0 °F - 17.6 °F 80% 29.93 in 2.5 mi WSW 2.3 mph - N/A   Haze
12:53 AM 23.0 °F - 17.6 °F 80% 29.93 in 4.0 mi NW 1.2 mph - N/A   Haze
12:58 AM 23.0 °F 18.4 °F 18.1 °F 82% 29.99 in 4.0 mi NE 3.5 mph - N/A   Haze
1:03 AM 23.0 °F 17.0 °F 19.4 °F 86% 29.93 in 1.0 mi North 4.6 mph - N/A   Haze
1:08 AM 23.0 °F - 17.6 °F 80% 29.94 in 0.2 mi NNW 2.3 mph - N/A   Haze
1:13 AM 23.0 °F - 17.6 °F 80% 29.94 in 0.2 mi WSW 1.2 mph - N/A   Haze
1:18 AM 23.0 °F - 19.4 °F 86% 29.94 in 0.8 mi NW 2.3 mph - N/A   Haze
1:23 AM 23.0 °F 18.4 °F 17.6 °F 80% 29.94 in 2.5 mi NW 3.5 mph - N/A   Haze
1:28 AM 23.0 °F - 17.6 °F 80% 29.94 in 2.5 mi NW 2.3 mph - N/A   Haze
1:33 AM 23.0 °F - 17.6 °F 80% 29.95 in 0.8 mi Calm Calm - N/A   Haze
1:38 AM 23.0 °F - 17.6 °F 80% 29.95 in 0.5 mi WSW 1.2 mph - N/A   Haze
1:43 AM 23.0 °F - 17.6 °F 80% 29.95 in 0.8 mi South 2.3 mph - N/A   Haze
1:48 AM 21.2 °F 14.9 °F 17.6 °F 86% 29.95 in 3.0 mi SE 4.6 mph - N/A   Haze
1:58 AM 21.6 °F 15.3 °F 16.7 °F 82% 30.01 in 4.0 mi ESE 4.6 mph - N/A   Haze
2:18 AM 23.0 °F 14.7 °F 17.6 °F 80% 29.94 in 2.5 mi South 6.9 mph - N/A   Haze
2:23 AM 23.0 °F 12.4 °F 17.6 °F 80% 29.94 in 3.0 mi South 10.4 mph - N/A   Haze
2:28 AM 23.0 °F 13.1 °F 17.6 °F 80% 29.94 in 5.0 mi South 9.2 mph - N/A   Haze
2:38 AM 23.0 °F 13.1 °F 19.4 °F 86% 29.94 in 4.0 mi South 9.2 mph - N/A   Haze
2:48 AM 23.0 °F 13.1 °F 17.6 °F 80% 29.95 in 1.2 mi SSE 9.2 mph - N/A   Haze
2:53 AM 23.0 °F 13.9 °F 17.6 °F 80% 29.95 in 0.5 mi South 8.1 mph - N/A   Clear
2:58 AM 23.4 °F 14.3 °F 18.5 °F 82% 30.00 in 0.5 mi South 8.1 mph - N/A   Partly Cloudy
3:03 AM 23.0 °F 13.9 °F 19.4 °F 86% 29.95 in 1.0 mi South 8.1 mph - N/A   Partly Cloudy
3:08 AM 23.0 °F 13.1 °F 19.4 °F 86% 29.95 in 1.0 mi SSE 9.2 mph - N/A   Haze
3:13 AM 23.0 °F 13.1 °F 17.6 °F 80% 29.95 in 0.5 mi SSE 9.2 mph - N/A   Haze
3:18 AM 23.0 °F 13.9 °F 17.6 °F 80% 29.95 in 0.2 mi SSE 8.1 mph - N/A   Haze
3:23 AM 23.0 °F 13.9 °F 19.4 °F 86% 29.95 in 0.2 mi South 8.1 mph - N/A   Haze
3:28 AM 23.0 °F 14.7 °F 19.4 °F 86% 29.95 in 0.5 mi South 6.9 mph - N/A   Haze
3:33 AM 24.8 °F 17.9 °F 19.4 °F 80% 29.96 in 0.8 mi South 5.8 mph - N/A   Haze
3:38 AM 24.8 °F 17.9 °F 19.4 °F 80% 29.96 in 1.0 mi South 5.8 mph - N/A   Haze
3:43 AM 24.8 °F 19.1 °F 19.4 °F 80% 29.96 in 1.2 mi South 4.6 mph - N/A   Haze
3:48 AM 24.8 °F - 19.4 °F 80% 29.96 in 1.0 mi Calm Calm - N/A   Haze
3:53 AM 24.8 °F - 19.4 °F 80% 29.96 in 1.0 mi SE 2.3 mph - N/A   Haze
3:58 AM 23.9 °F - 19.0 °F 82% 30.01 in 0.5 mi SE 2.3 mph - N/A   Haze
4:03 AM 23.0 °F 18.4 °F 19.4 °F 86% 29.96 in 0.5 mi SSE 3.5 mph - N/A   Haze
4:08 AM 23.0 °F 15.8 °F 19.4 °F 86% 29.96 in 0.2 mi SSE 5.8 mph - N/A   Haze
4:38 AM 24.8 °F - 19.4 °F 80% 29.97 in 0.2 mi SSE 2.3 mph - N/A   Haze
4:48 AM 24.8 °F 19.1 °F 19.4 °F 80% 29.96 in 0.2 mi South 4.6 mph - N/A   Haze
4:53 AM 24.8 °F 19.1 °F 19.4 °F 80% 29.96 in 0.2 mi SSE 4.6 mph - N/A   Haze
4:58 AM 24.1 °F 18.2 °F 19.2 °F 82% 30.03 in 0.5 mi South 4.6 mph - N/A   Haze
5:03 AM 24.8 °F - 19.4 °F 80% 29.97 in 0.5 mi SE 2.3 mph - N/A   Haze
5:08 AM 23.0 °F - 19.4 °F 86% 29.97 in 0.8 mi SW 1.2 mph - N/A   Haze
5:13 AM 23.0 °F - 19.4 °F 86% 29.97 in 0.5 mi Calm Calm - N/A   Haze
5:18 AM 23.0 °F - 19.4 °F 86% 29.98 in 0.8 mi Calm Calm - N/A   Haze
5:23 AM 23.0 °F - 19.4 °F 86% 29.98 in 0.8 mi Calm Calm - N/A   Haze
5:28 AM 23.0 °F - 19.4 °F 86% 29.99 in 0.5 mi Calm Calm - N/A   Haze
5:38 AM 23.0 °F - 19.4 °F 86% 30.00 in 0.8 mi Calm Calm - N/A   Haze
5:43 AM 23.0 °F - 19.4 °F 86% 30.00 in 0.5 mi North 2.3 mph - N/A   Haze
5:58 AM 24.8 °F - 19.4 °F 80% 30.07 in 0.5 mi Calm Calm - N/A   Haze
6:08 AM 23.0 °F 18.4 °F 19.4 °F 86% 30.00 in 0.8 mi ENE 3.5 mph - N/A   Haze
6:13 AM 23.0 °F 15.8 °F 19.4 °F 86% 29.99 in 0.8 mi ESE 5.8 mph - N/A   Haze
6:18 AM 23.0 °F 18.4 °F 17.6 °F 80% 30.00 in 0.8 mi SE 3.5 mph - N/A   Haze
6:39 AM 21.2 °F - 15.8 °F 80% 29.99 in 0.5 mi Calm Calm - N/A   Haze
6:44 AM 21.2 °F - 17.6 °F 86% 30.00 in 2.0 mi North 1.2 mph - N/A   Haze
6:54 AM 23.0 °F 18.4 °F 17.6 °F 80% 30.00 in 1.8 mi North 3.5 mph - N/A   Haze
6:56 AM 23.0 °F 18.4 °F 17.6 °F 80% 30.01 in 0.8 mi North 3.5 mph - N/A   Haze
6:58 AM 23.0 °F - 17.6 °F 80% 30.09 in 0.5 mi North 2.3 mph - N/A   Haze
7:03 AM 21.2 °F 14.9 °F 17.6 °F 86% 30.01 in 0.2 mi North 4.6 mph - N/A   Haze
7:13 AM 21.2 °F - 17.6 °F 86% 30.02 in 0.2 mi North 2.3 mph - N/A   Haze
7:18 AM 23.0 °F - 17.6 °F 80% 30.02 in 0.2 mi NW 2.3 mph - N/A   Haze
7:23 AM 23.0 °F - 17.6 °F 80% 30.02 in 0.2 mi NW 2.3 mph - N/A   Haze
7:28 AM 23.0 °F - 17.6 °F 80% 30.02 in 0.2 mi WNW 2.3 mph - N/A   Haze
7:36 AM 23.0 °F 18.4 °F 17.6 °F 80% 30.03 in 0.2 mi West 3.5 mph - N/A   Haze
7:41 AM 23.0 °F 18.4 °F 17.6 °F 80% 30.03 in 0.2 mi West 3.5 mph - N/A   Haze
7:46 AM 23.0 °F - 17.6 °F 80% 30.03 in 0.2 mi WSW 2.3 mph - N/A   Haze
7:51 AM 23.0 °F - 17.6 °F 80% 30.03 in 0.2 mi SW 2.3 mph - N/A   Haze
7:58 AM 23.0 °F - 17.6 °F 80% 30.10 in 0.2 mi South 2.3 mph - N/A   Haze
8:39 AM 23.0 °F 18.4 °F 17.6 °F 80% 30.06 in 0.2 mi SE 3.5 mph - N/A Snow Light Snow
8:41 AM 23.0 °F 17.0 °F 17.6 °F 80% 30.05 in 0.2 mi SSE 4.6 mph - N/A Fog Light Freezing Fog
8:58 AM 23.2 °F 18.7 °F 18.1 °F 81% 30.15 in 0.2 mi SSE 3.5 mph - 0.00 in Snow Light Snow
9:01 AM 23.0 °F 18.4 °F 17.6 °F 80% 30.06 in 0.2 mi SSE 3.5 mph - N/A Snow Light Snow
9:16 AM 23.0 °F 17.0 °F 17.6 °F 80% 30.06 in 0.2 mi SSE 4.6 mph - N/A Fog Light Freezing Fog
9:58 AM 24.8 °F - 19.4 °F 80% 30.16 in 0.2 mi ESE 2.3 mph - N/A Fog Light Freezing Fog
10:58 AM 26.8 °F 22.8 °F 22.5 °F 84% 30.18 in 0.8 mi SSW 3.5 mph - N/A   Mostly Cloudy
11:03 AM 26.6 °F 21.2 °F 23.0 °F 86% 30.10 in 1.0 mi SSW 4.6 mph - N/A   Scattered Clouds
11:17 AM 26.6 °F 21.2 °F 23.0 °F 86% 30.10 in 1.5 mi WSW 4.6 mph - N/A   Scattered Clouds
11:32 AM 28.4 °F 21.2 °F 23.0 °F 80% 30.11 in 1.0 mi West 6.9 mph - N/A   Scattered Clouds
11:44 AM 28.4 °F 23.3 °F 24.8 °F 86% 30.12 in 0.8 mi NNW 4.6 mph - N/A   Mist
11:58 AM 28.4 °F 23.3 °F 24.8 °F 86% 30.19 in 0.8 mi West 4.6 mph - N/A   Scattered Clouds
12:05 PM 28.4 °F 23.3 °F 24.8 °F 86% 30.11 in 1.2 mi West 4.6 mph - N/A   Partly Cloudy
12:19 PM 28.4 °F 24.6 °F 24.8 °F 86% 30.11 in 2.0 mi WSW 3.5 mph - N/A   Partly Cloudy
12:50 PM 28.4 °F - 24.8 °F 86% 30.10 in 3.0 mi South 1.2 mph - N/A   Partly Cloudy
12:58 PM 28.6 °F 24.8 °F 24.8 °F 86% 30.16 in 4.0 mi South 3.5 mph - N/A   Clear
1:08 PM 28.4 °F 24.6 °F 24.8 °F 86% 30.08 in 5.0 mi SSE 3.5 mph - N/A   Clear
1:58 PM 30.0 °F 24.1 °F 25.3 °F 83% 30.17 in 8.0 mi West 5.8 mph - N/A   Clear
2:58 PM 30.2 °F 24.3 °F 22.5 °F 73% 30.18 in 7.0 mi West 5.8 mph - N/A   Clear
3:58 PM 30.4 °F 25.6 °F 21.7 °F 70% 30.17 in 9.0 mi SW 4.6 mph - N/A   Clear
4:38 PM 28.4 °F 21.2 °F 21.2 °F 74% 30.12 in 3.0 mi WSW 6.9 mph - N/A   Haze
4:43 PM 26.6 °F 20.0 °F 21.2 °F 80% 30.12 in 2.0 mi SW 5.8 mph - N/A   Haze
4:48 PM 26.6 °F 21.2 °F 21.2 °F 80% 30.13 in 1.0 mi SW 4.6 mph - N/A   Haze
4:59 PM 26.6 °F 21.2 °F 21.2 °F 80% 30.21 in 1.5 mi WSW 4.6 mph - N/A   Haze
5:12 PM 24.8 °F - 21.2 °F 86% 30.14 in 0.2 mi WSW 2.3 mph - N/A   Haze
5:58 PM 23.5 °F 17.6 °F 19.4 °F 84% 30.24 in 0.2 mi West 4.6 mph - N/A   Haze
5:59 PM 23.0 °F 17.0 °F 19.4 °F 86% 30.15 in 0.2 mi West 4.6 mph - N/A Fog Light Freezing Fog
6:58 PM 24.6 °F - 20.1 °F 83% 30.26 in 0.2 mi ENE 2.3 mph - N/A Fog Light Freezing Fog
7:58 PM 22.5 °F 16.3 °F 17.4 °F 81% 30.27 in 0.2 mi SSE 4.6 mph - 0.00 in   Haze
8:33 PM 21.2 °F 14.9 °F 15.8 °F 80% 30.17 in 0.2 mi South 4.6 mph - N/A Fog Light Freezing Fog
8:58 PM 19.4 °F 14.3 °F 14.4 °F 81% 30.29 in 0.2 mi North 3.5 mph - N/A Fog Light Freezing Fog
9:58 PM 19.4 °F - 14.0 °F 80% 30.28 in 0.2 mi West 1.2 mph - N/A Fog Light Freezing Fog
10:58 PM 19.4 °F 14.3 °F 14.5 °F 81% 30.28 in 0.2 mi NE 3.5 mph - 0.00 in   Haze
11:04 PM 19.4 °F 14.3 °F 14.0 °F 80% 30.17 in 0.2 mi NE 3.5 mph - N/A Fog Light Freezing Fog
11:32 PM 17.6 °F 10.7 °F 12.2 °F 79% 30.18 in 0.5 mi East 4.6 mph - N/A Fog Light Freezing Fog
11:34 PM 17.6 °F 10.7 °F 12.2 °F 79% 30.18 in 0.8 mi East 4.6 mph - N/A Fog Light Freezing Fog
11:36 PM 17.6 °F 10.7 °F 12.2 °F 79% 30.18 in 1.2 mi East 4.6 mph - N/A Fog Light Freezing Fog
11:38 PM 17.6 °F 9.3 °F 14.0 °F 86% 30.18 in 2.5 mi East 5.8 mph - N/A Fog Light Freezing Fog
11:39 PM 17.6 °F 9.3 °F 14.0 °F 86% 30.18 in 4.0 mi East 5.8 mph - N/A   Haze
11:44 PM 19.4 °F 11.5 °F 14.0 °F 80% 30.18 in 10.0 mi East 5.8 mph - N/A   Clear
11:58 PM 19.9 °F 11.1 °F 15.1 °F 81% 30.27 in 10.0 mi East 6.9 mph - N/A   Clear